Location: Bergnershof
(48.9468°N, 10.9431°E)
Time: 22:32:26
(UTC+00:00)

Meteor 1-18 Rocket - Pass Details

Date: 03 March 2021
Orbit: 836 x 909 km, 81.2° (Epoch: 13 April)

Event Time Altitude Azimuth Distance (km) Brightness Sun altitude
Rises 17:47:03 0° 349° (N) 3,551 7.6 -8.0°
Reaches altitude 10° 17:49:33 10° 351° (N) 2,607 6.9 -8.4°
Maximum altitude 17:55:31 72° 76° (ENE) 957 4.3 -9.4°
Drops below altitude 10° 18:01:24 10° 161° (SSE) 2,575 6.5 -10.4°
Sets 18:03:50 0° 164° (SSE) 3,504 7.2 -10.8°
